Погода в Ерёмино

Россия / Московская область     56°00′28″N   37°32′38″E
темп.,
°C
ветер,
м/с
пор.,
м/с
влажн.,
%
обл.,
%
осадки,
мм/ч
давл.,
гПа
погр.,
м
17 августа, ср
ср1700:00+21в38625 0.0 1021275
03:00+18в377528 0.0 1021166
06:00+17в39725 0.0 1021200
09:00+23вюв48485 0.0 1020475
12:00+27вюв56345 0.0 10201292
15:00+29в443049 0.0 10191971
18:00+27всв35355 0.0 1018662
21:00+22св37522 0.0 1018129
18 августа, чт
чт1800:00+19вюв35584 0.0 101893
03:00+18в34640 0.0 101972
06:00+18всв36660 0.0 1019122
09:00+23вюв58511 0.0 1020566
12:00+28в57360 0.0 10201717
15:00+29в56304 0.0 10192375
18:00+27вюв57351 0.0 10191044
21:00+22в4125614 0.0 1021418
19 августа, пт
пт1900:00+20всв411610 0.0 1022304
03:00+19всв4116198 0.0 1022328
06:00+18в41262100 0.0 1023437
09:00+22в61055100 0.0 1024710
12:00+25в7945100 0.0 10241366
15:00+25в5840100 0.0 10241825
18:00+23ююв5749100 0.0 1025717
21:00+19всв41156100 0.0 1025419
20 августа, сб
сб2000:00+18в413427 0.0 1025396
03:00+16в395498 0.0 1026248
06:00+15вюв4106499 0.0 1026327
09:00+16в41168100 0.1 1027492
12:00+18вюв51472100 0.2 1027656
15:00+19вюв61350100 0.2 1026690
18:00+21вюв51340100 0.0 1025848
21:00+17вюв3952100 0.0 1025173
21 августа, вс
вс2100:00+17вюв41051100 0.0 1025208
03:00+17вюв41038100 0.0 1024296
06:00+17вюв3839100 0.0 1025209
09:00+17вюв4839100 0.0 1025259
12:00+19юв3738100 0.0 1025387
15:00+21вюв3833100 0.0 1024597
18:00+20вюв2539100 0.0 1024130
21:00+18вюв364368 0.0 102486